Temperature
8 8 8 8 8 7 7 7 6 6 6 6 6 6 6 6 5 5 5 5 5 5 4 4 4 4 4 3 3 3 2 2 1 2 2 2 2 2 2 2 2 2 2
8 8 7 7 7 7 7 6 6 6 6 6 5 5 5 5 5 5 5 5 4 4 4 4 4 3 3 3 3 2 2 2 1 1 2 1 1 1 1 1 1 1 1
7 7 7 7 7 6 6 6 6 6 5 5 5 5 5 5 4 4 4 4 4 4 4 4 3 3 3 3 2 2 2 1 1 1 1 1 1 0 0 0 0 0 0
7 7 7 6 6 6 6 5 5 5 5 5 5 5 4 4 4 4 4 4 4 3 3 3 3 3 3 2 2 2 1 1 1 0 0 0 0 -0 -1 -1 -1 -1 -1
7 6 6 6 6 5 5 5 5 5 5 4 4 4 4 4 4 4 4 3 3 3 3 3 3 2 2 2 2 1 1 0 0 -0 -0 -1 -1 -1 -1 -1 -2 -2 -1
6 6 6 5 5 5 5 5 4 4 4 4 4 4 4 4 3 3 3 3 3 3 3 3 2 2 2 1 1 1 0 -0 -0 -1 -1 -1 -1 -1 -2 -2 -2 -2 -2
6 5 5 5 5 5 4 4 4 4 4 4 3 3 3 3 3 3 3 2 2 2 2 2 2 1 1 1 1 0 -0 -1 -1 -1 -2 -1 -2 -2 -2 -3 -3 -3 -3
5 5 5 4 4 4 4 4 4 3 3 3 3 3 3 3 3 2 2 2 2 2 1 1 1 1 0 -0 -0 -1 -1 -1 -1 -2 -2 -2 -2 -3 -3 -3 -3 -4 -3
5 4 4 4 4 4 4 4 3 3 3 3 2 2 2 2 2 2 1 1 1 1 1 0 -0 -0 -0 -1 -1 -1 -1 -1 -2 -2 -2 -3 -3 -3 -3 -4 -4 -4 -4
4 4 4 4 3 3 3 3 3 2 2 2 2 2 2 2 1 1 1 0 0 0 -0 -0 -1 -1 -1 -2 -2 -2 -2 -2 -2 -3 -3 -3 -3 -3 -4 -4 -4 -4 -5
4 4 3 3 3 3 2 2 2 2 2 2 2 2 1 1 1 1 0 -0 -1 -1 -1 -1 -1 -2 -2 -2 -2 -3 -3 -3 -3 -3 -3 -3 -3 -4 -4 -4 -5 -5 -5
3 3 3 3 2 2 2 2 2 1 1 1 1 1 1 1 0 0 -0 -1 -1 -2 -2 -2 -2 -2 -3 -3 -3 -3 -3 -3 -4 -4 -4 -4 -4 -4 -4 -5 -5 -5 -5
3 3 3 2 2 2 1 1 1 1 1 1 0 0 0 0 -0 -1 -1 -1 -2 -2 -2 -2 -3 -3 -3 -3 -3 -3 -3 -4 -4 -4 -4 -4 -5 -5 -5 -5 -5 -5 -6
2 2 2 2 2 1 1 1 1 0 0 0 -0 -0 -1 -1 -1 -1 -2 -2 -2 -2 -3 -3 -3 -3 -3 -3 -3 -4 -4 -4 -4 -5 -5 -5 -5 -5 -6 -6 -6 -6 -6
2 2 2 1 1 1 1 0 0 0 -0 -1 -1 -1 -2 -2 -2 -2 -3 -3 -3 -3 -3 -3 -3 -3 -4 -4 -4 -4 -4 -4 -5 -5 -5 -5 -6 -6 -6 -6 -6 -6 -7
1 1 1 1 1 0 0 -0 -0 -0 -1 -1 -1 -2 -2 -2 -2 -2 -3 -3 -3 -4 -4 -4 -4 -4 -4 -4 -5 -5 -5 -5 -5 -5 -6 -6 -6 -6 -6 -7 -7 -7 -7
1 1 1 0 0 -0 -0 -1 -1 -1 -1 -1 -2 -2 -2 -2 -3 -3 -3 -3 -4 -4 -4 -4 -4 -4 -5 -5 -5 -5 -5 -6 -6 -6 -6 -6 -6 -7 -7 -7 -7 -7 -7
1 0 0 -0 -0 -1 -1 -1 -2 -2 -2 -2 -2 -2 -2 -3 -3 -3 -4 -4 -4 -4 -4 -5 -5 -5 -5 -5 -6 -6 -6 -6 -6 -6 -6 -7 -7 -7 -7 -8 -8 -8 -8
0 0 -0 -0 -1 -1 -1 -2 -2 -2 -3 -3 -2 -3 -3 -3 -3 -4 -4 -4 -5 -5 -5 -5 -5 -6 -6 -6 -6 -6 -6 -6 -6 -7 -7 -7 -7 -7 -8 -8 -8 -8 -8
-0 -0 -1 -1 -1 -1 -2 -2 -2 -3 -3 -3 -3 -3 -4 -4 -4 -4 -4 -5 -5 -5 -5 -6 -6 -6 -6 -6 -6 -6 -7 -7 -7 -7 -7 -7 -7 -8 -8 -8 -8 -8 -8
-1 -1 -1 -1 -2 -2 -2 -3 -3 -3 -4 -4 -4 -4 -4 -5 -5 -5 -5 -5 -5 -6 -6 -6 -6 -6 -7 -7 -7 -7 -7 -7 -7 -7 -7 -7 -8 -8 -8 -8 -8 -8 -8
-1 -1 -2 -2 -2 -2 -3 -3 -3 -4 -4 -4 -4 -4 -5 -5 -5 -5 -5 -5 -6 -6 -6 -7 -7 -7 -7 -7 -7 -7 -7 -7 -7 -7 -8 -8 -8 -8 -8 -8 -8 -9 -9
-2 -2 -2 -2 -3 -3 -3 -3 -4 -4 -5 -5 -5 -5 -5 -5 -5 -6 -6 -6 -6 -6 -7 -7 -7 -7 -7 -7 -7 -7 -7 -7 -8 -8 -8 -8 -8 -8 -8 -8 -9 -9 -9
-2 -2 -3 -3 -3 -3 -4 -4 -5 -5 -5 -5 -5 -5 -5 -6 -6 -6 -6 -6 -6 -7 -7 -7 -7 -7 -7 -7 -7 -7 -7 -8 -8 -8 -8 -8 -8 -8 -9 -9 -9 -9 -9
-3 -3 -3 -3 -4 -4 -4 -5 -5 -5 -5 -5 -5 -6 -6 -6 -6 -6 -6 -6 -7 -7 -7 -7 -7 -7 -7 -7 -7 -7 -8 -8 -8 -8 -8 -8 -9 -9 -9 -9 -9 -9 -9
-3 -4 -4 -4 -4 -4 -5 -5 -5 -6 -6 -6 -6 -6 -6 -6 -6 -6 -7 -7 -7 -7 -7 -7 -7 -7 -7 -7 -7 -8 -8 -8 -8 -8 -9 -9 -9 -9 -9 -9 -9 -9 -10
Wind_Speed
3 2 2 2 1 1 2 2 2 2 2 2 3 3 3 3 3 3 4 4 4 4 4 4 5 4 4 3 3 3 4 4 8 7 4 4 3 4 5 6 8 8 8
3 2 2 2 1 2 2 2 2 2 2 3 3 3 3 4 4 4 5 5 5 5 5 5 6 5 5 4 4 5 5 5 6 9 6 4 5 5 4 5 6 7 8
3 2 2 2 2 2 2 2 2 2 2 3 3 4 4 4 4 5 5 5 5 5 5 6 6 5 6 5 5 5 5 6 5 7 7 4 4 4 4 5 5 5 8
3 3 2 2 2 2 2 2 2 2 3 3 4 4 4 4 5 5 4 5 5 5 5 6 6 6 7 6 6 6 5 5 5 6 7 6 5 5 3 4 5 4 5
3 3 2 2 2 2 2 2 2 3 3 4 4 4 4 4 4 5 4 5 5 6 6 6 7 8 10 9 7 6 5 5 5 6 7 6 6 4 4 4 5 5 5
3 3 2 2 2 2 2 2 3 3 3 3 4 5 5 5 7 9 7 5 5 6 7 7 7 8 11 14 15 14 11 9 7 7 7 8 8 6 5 5 4 5 6
3 3 2 2 2 3 3 3 3 4 4 4 5 5 5 6 9 11 10 6 6 7 7 7 8 8 10 7 11 14 14 17 16 11 10 10 8 6 5 5 5 6 7
3 3 3 3 3 2 3 4 4 4 4 4 5 5 5 7 11 11 11 7 6 7 7 8 8 8 8 8 7 8 8 9 12 10 9 10 8 6 6 7 7 7 7
3 3 3 3 3 3 4 4 4 3 4 5 5 5 6 8 11 12 12 5 6 7 7 7 8 8 13 14 9 8 9 8 12 15 15 14 15 14 10 5 4 5 7
4 3 3 3 3 4 5 5 4 4 5 5 5 6 7 8 11 12 11 5 6 6 6 7 11 12 14 14 9 8 9 9 7 8 10 12 10 11 13 7 5 6 6
3 3 3 3 4 5 4 4 4 4 4 5 6 6 6 8 10 12 11 5 5 6 6 6 7 14 16 16 13 9 12 11 7 7 7 6 5 5 6 6 5 6 7
3 3 4 4 4 3 4 4 4 4 4 5 5 6 5 6 8 10 12 12 11 7 7 7 8 15 16 17 13 13 16 14 6 6 6 6 6 6 5 5 6 7 7
3 4 4 4 4 4 4 5 4 4 4 5 5 6 6 5 6 11 13 13 14 9 8 12 15 17 16 12 14 16 13 7 6 6 7 7 6 5 4 3 4 5 6
4 4 4 4 4 4 4 4 4 4 5 5 5 6 6 6 5 5 5 7 10 9 9 11 16 16 14 13 12 10 7 6 6 7 6 5 4 4 4 4 4 4 5
4 4 4 4 4 4 4 4 5 6 6 7 6 6 6 8 9 12 9 7 6 8 9 7 7 7 7 6 6 6 6 6 6 5 5 5 5 5 5 4 4 4 5
4 4 4 3 3 4 4 5 8 8 11 12 11 10 9 12 15 16 16 16 17 16 11 8 8 8 8 7 7 7 6 6 6 5 5 6 6 5 5 4 4 5 6
5 5 4 4 4 4 4 5 6 8 10 11 12 13 13 14 15 15 16 16 16 15 9 7 8 8 7 7 6 6 6 5 5 5 6 6 5 5 5 5 5 5 6
5 5 5 4 4 4 5 5 5 6 8 7 9 13 14 14 14 15 15 12 9 8 6 7 7 7 7 6 6 6 5 5 5 5 5 5 5 5 5 5 5 6 6
5 4 4 4 4 4 5 5 5 6 7 8 7 8 11 12 13 14 12 6 7 7 7 7 6 6 6 6 5 5 5 5 5 5 5 5 5 5 5 5 5 8 7
4 7 6 4 4 4 5 5 6 6 7 7 8 7 6 6 6 7 5 5 7 7 7 7 6 6 5 5 5 5 5 5 5 5 5 5 5 5 5 6 5 5 5
4 5 7 5 5 5 5 6 6 7 7 8 8 9 11 7 7 7 7 6 6 7 6 6 6 5 5 5 5 5 5 5 5 5 5 4 4 4 4 4 5 5 5
4 4 4 5 5 5 6 6 6 7 8 9 8 9 13 8 6 7 7 7 6 6 5 5 5 5 5 5 5 5 5 5 5 5 5 4 4 4 4 4 4 4 4
4 5 5 5 5 8 8 6 6 7 8 8 8 8 7 6 7 7 7 7 6 5 5 5 5 5 4 4 4 5 5 5 5 4 4 4 4 4 4 4 5 5 5
5 5 6 6 6 6 6 7 7 8 8 8 8 8 7 7 7 7 7 6 5 5 5 5 5 6 6 5 5 5 5 5 4 4 5 5 4 4 4 4 4 5 5
4 5 6 6 6 7 7 7 8 8 8 8 8 8 7 7 7 7 6 5 6 6 6 5 5 5 6 6 6 5 7 7 6 5 4 4 5 5 4 4 4 4 4
5 6 6 6 6 7 7 7 8 8 8 8 7 7 7 7 7 6 6 5 5 5 5 4 5 5 6 6 6 7 7 8 7 7 5 4 4 4 4 4 5 5 5
Wind_Direction
141 144 150 169 172 186 210 217 212 213 220 234 231 236 242 246 241 230 233 235 238 247 248 241 246 243 243 245 239 237 238 238 262 275 266 272 275 276 284 274 271 270 278
149 151 166 174 183 209 217 219 213 221 227 235 240 242 242 244 241 235 239 240 238 242 246 246 249 249 245 243 240 241 242 239 250 270 278 271 267 268 270 274 281 276 271
150 157 169 181 198 217 214 217 219 223 234 240 245 248 247 248 245 243 239 243 244 243 244 245 248 245 250 246 243 245 247 253 247 259 272 270 268 269 276 278 277 280 277
160 171 187 197 203 203 202 209 218 225 235 239 242 247 248 251 248 248 244 246 250 251 249 248 248 243 247 249 251 249 247 252 253 258 267 273 270 267 265 272 283 275 278
171 183 198 198 199 195 206 215 221 231 239 241 246 250 249 250 248 247 249 251 253 259 260 256 254 250 249 253 256 250 245 249 254 258 265 272 269 266 264 263 274 283 279
178 192 191 205 207 205 218 227 234 242 246 248 252 254 255 260 262 266 265 256 255 258 264 263 261 258 258 262 262 260 252 248 248 253 260 260 265 259 259 262 270 284 285
184 189 192 207 218 218 221 233 240 242 246 252 252 252 255 258 266 271 270 265 255 257 258 262 269 265 267 258 263 265 262 258 253 249 252 256 260 254 253 262 262 265 267
185 196 201 206 220 226 229 237 243 242 245 249 252 252 255 260 268 273 275 269 258 257 257 257 261 264 262 263 259 260 257 259 257 253 250 254 253 249 241 248 254 266 270
193 205 210 209 219 232 240 247 247 247 254 254 256 256 259 266 270 274 277 262 259 262 262 262 263 264 270 274 269 264 268 266 267 262 256 256 258 260 258 253 252 266 274
203 207 209 211 223 235 241 248 249 245 250 256 261 256 254 260 270 276 277 260 262 268 269 265 270 273 276 278 269 262 267 269 266 268 265 263 259 259 258 243 232 251 266
194 206 219 222 228 236 243 247 250 249 253 258 265 267 261 263 275 279 280 272 263 271 276 276 272 279 281 281 277 264 265 272 265 259 258 256 251 243 240 232 227 234 247
193 214 228 232 235 237 240 251 248 244 254 263 268 275 270 269 275 278 280 279 281 274 274 275 275 281 283 282 280 271 272 276 268 259 257 255 251 245 236 228 230 235 238
206 228 236 236 237 235 236 246 253 249 250 260 261 270 278 273 276 283 284 285 286 283 277 278 283 285 286 283 277 276 276 266 254 255 255 254 247 241 230 232 237 240 247
220 235 236 237 245 245 244 241 244 247 251 257 261 268 277 280 276 275 273 280 284 283 281 280 283 284 281 275 275 275 262 250 248 251 254 252 244 238 237 234 241 241 255
224 235 240 239 242 248 250 245 248 247 247 255 260 260 270 279 278 280 285 282 279 275 284 282 278 276 271 266 262 258 252 250 252 245 248 252 249 245 244 232 235 241 250
229 237 239 242 247 249 259 278 267 261 271 270 270 271 273 275 285 289 290 290 291 289 289 280 276 271 269 267 267 263 250 246 244 242 243 246 249 246 246 240 236 244 252
223 232 237 240 245 251 254 264 285 291 282 280 279 279 278 282 287 291 293 294 292 292 284 277 275 272 268 265 260 256 254 247 240 238 243 245 247 246 243 242 241 247 253
225 233 235 238 243 247 251 256 264 279 292 293 286 282 284 287 290 292 295 299 293 285 269 272 276 276 273 267 260 256 252 247 242 242 243 240 239 243 242 240 239 245 252
230 237 238 240 244 248 254 259 263 268 274 282 287 289 288 292 293 291 294 283 280 281 277 273 272 274 273 268 262 257 254 250 245 244 243 237 235 236 240 239 241 247 250
238 243 244 243 249 253 256 259 263 266 271 275 278 282 290 293 290 289 280 273 274 276 276 275 273 271 273 273 267 261 257 250 247 248 243 235 231 231 236 237 241 246 247
236 246 249 250 248 252 256 258 261 266 271 275 276 279 284 285 282 283 282 278 274 274 275 277 277 274 272 272 266 260 257 254 249 245 241 234 226 229 231 234 239 243 247
234 242 242 244 250 253 260 260 264 267 271 275 280 282 286 283 277 277 278 278 274 270 270 274 276 273 267 266 266 261 258 256 253 243 235 228 223 225 226 230 236 241 241
236 246 252 252 252 263 270 267 268 270 272 274 277 281 281 277 275 275 276 277 276 274 270 267 271 272 264 259 257 256 256 253 249 239 230 224 222 221 223 229 232 236 242
239 247 253 258 259 260 265 269 270 270 272 273 274 275 274 274 275 276 275 275 273 270 267 265 266 264 264 266 264 256 252 248 239 234 225 223 223 220 221 228 233 237 246
246 252 257 259 262 265 268 271 272 272 274 275 275 275 274 274 274 274 272 270 270 270 268 266 265 262 260 263 264 259 257 256 249 231 220 217 215 215 221 227 232 239 248
260 261 264 265 263 265 268 272 275 276 277 278 276 273 273 273 272 271 269 268 270 270 268 266 259 259 261 262 260 260 263 260 253 243 221 217 213 220 220 227 229 234 242
Height
1497 1497 1498 1498 1499 1499 1499 1499 1499 1499 1499 1499 1499 1499 1499 1499 1499 1498 1498 1497 1496 1496 1495 1494 1494 1493 1492 1491 1490 1489 1488 1487 1483 1479 1480 1479 1478 1477 1475 1473 1472 1470 1468
1494 1495 1495 1495 1495 1495 1495 1495 1495 1496 1496 1496 1495 1495 1495 1495 1494 1494 1493 1493 1492 1491 1490 1489 1489 1488 1487 1486 1485 1483 1482 1481 1479 1475 1474 1473 1473 1471 1469 1468 1466 1465 1463
1492 1492 1492 1491 1491 1491 1491 1491 1492 1492 1492 1492 1491 1491 1491 1491 1490 1490 1489 1488 1487 1486 1485 1484 1484 1482 1481 1480 1479 1478 1476 1475 1473 1471 1468 1467 1466 1465 1464 1462 1460 1459 1457
1488 1488 1488 1488 1488 1488 1488 1488 1488 1488 1488 1488 1487 1487 1487 1486 1486 1485 1484 1483 1482 1481 1480 1479 1478 1477 1475 1475 1473 1472 1471 1469 1468 1465 1463 1461 1460 1459 1458 1456 1454 1453 1451
1485 1485 1485 1484 1484 1484 1484 1484 1484 1484 1484 1484 1483 1483 1482 1482 1481 1480 1479 1478 1477 1476 1475 1474 1473 1471 1470 1469 1467 1466 1465 1463 1461 1459 1457 1455 1454 1453 1452 1450 1448 1446 1445
1481 1481 1481 1481 1481 1481 1481 1481 1481 1481 1480 1480 1479 1479 1478 1478 1477 1476 1474 1473 1471 1470 1469 1467 1466 1465 1464 1463 1461 1460 1459 1457 1455 1453 1451 1449 1448 1447 1446 1445 1443 1441 1438
1477 1477 1477 1477 1477 1477 1477 1477 1477 1477 1476 1476 1475 1474 1473 1473 1472 1471 1469 1468 1466 1464 1463 1461 1460 1459 1457 1456 1454 1453 1451 1450 1449 1448 1445 1443 1442 1441 1441 1439 1437 1436 1433
1474 1474 1474 1474 1474 1474 1474 1473 1473 1473 1472 1471 1471 1470 1469 1468 1467 1465 1464 1462 1460 1458 1457 1455 1453 1451 1450 1449 1447 1445 1443 1443 1442 1440 1438 1437 1436 1435 1435 1433 1432 1430 1428
1470 1471 1471 1471 1470 1470 1470 1469 1469 1468 1467 1467 1466 1464 1463 1462 1461 1459 1458 1455 1453 1451 1450 1448 1446 1444 1443 1442 1440 1438 1436 1435 1434 1433 1432 1431 1430 1429 1428 1427 1426 1424 1421
1467 1467 1468 1467 1467 1466 1466 1465 1464 1464 1463 1462 1460 1459 1458 1456 1455 1453 1452 1449 1447 1445 1443 1441 1440 1438 1436 1435 1433 1431 1429 1427 1427 1425 1424 1423 1423 1422 1421 1421 1420 1418 1416
1464 1464 1464 1463 1463 1462 1461 1461 1460 1459 1458 1457 1455 1454 1452 1451 1449 1448 1446 1443 1441 1438 1436 1434 1433 1431 1430 1428 1427 1425 1423 1421 1419 1418 1417 1416 1415 1414 1414 1414 1413 1413 1411
1460 1460 1460 1459 1459 1458 1457 1456 1455 1454 1453 1451 1449 1448 1446 1445 1443 1441 1440 1438 1435 1433 1430 1428 1426 1425 1423 1421 1419 1418 1416 1415 1413 1411 1410 1409 1408 1407 1407 1407 1407 1406 1405
1456 1456 1456 1455 1455 1454 1453 1451 1450 1449 1448 1446 1444 1442 1440 1439 1437 1436 1433 1431 1429 1427 1424 1422 1420 1418 1416 1414 1412 1411 1410 1408 1406 1405 1403 1402 1402 1401 1401 1400 1400 1399 1399
1452 1451 1451 1450 1450 1449 1448 1447 1445 1444 1442 1441 1439 1436 1434 1432 1430 1429 1426 1424 1422 1420 1417 1415 1413 1411 1409 1406 1405 1404 1403 1401 1400 1398 1397 1396 1396 1395 1395 1394 1393 1393 1392
1447 1447 1446 1446 1445 1444 1443 1442 1440 1439 1438 1436 1433 1431 1428 1426 1424 1423 1421 1418 1416 1413 1411 1408 1405 1403 1401 1399 1398 1397 1395 1394 1393 1392 1391 1390 1389 1389 1388 1388 1388 1387 1386
1442 1442 1441 1441 1440 1438 1437 1436 1434 1434 1432 1430 1428 1426 1423 1421 1418 1416 1414 1412 1409 1407 1405 1401 1399 1396 1394 1392 1391 1390 1389 1388 1387 1386 1385 1385 1384 1383 1382 1382 1382 1381 1380
1437 1437 1436 1435 1434 1433 1432 1430 1428 1427 1425 1424 1422 1420 1418 1415 1413 1410 1408 1405 1403 1401 1398 1395 1392 1390 1388 1386 1385 1384 1382 1382 1381 1380 1379 1379 1378 1378 1377 1377 1376 1376 1375
1432 1432 1431 1430 1429 1428 1426 1425 1423 1420 1418 1416 1415 1414 1411 1409 1406 1404 1401 1399 1396 1394 1392 1389 1387 1384 1382 1381 1379 1378 1377 1376 1375 1374 1374 1373 1373 1372 1372 1371 1371 1371 1370
1427 1427 1426 1425 1424 1422 1421 1419 1417 1415 1413 1410 1408 1406 1405 1403 1400 1398 1396 1393 1390 1388 1386 1383 1381 1379 1377 1375 1374 1372 1371 1370 1369 1369 1368 1368 1367 1367 1367 1366 1366 1366 1366
1422 1421 1420 1419 1418 1417 1415 1413 1411 1409 1407 1405 1402 1400 1398 1396 1393 1391 1389 1387 1385 1382 1380 1378 1376 1374 1372 1370 1369 1367 1366 1365 1364 1363 1363 1363 1362 1362 1362 1362 1361 1361 1361
1417 1416 1415 1414 1413 1411 1409 1407 1405 1403 1401 1399 1397 1395 1393 1391 1388 1385 1383 1381 1379 1376 1374 1372 1370 1368 1367 1365 1364 1362 1361 1360 1359 1358 1358 1358 1358 1357 1357 1357 1357 1356 1356
1411 1410 1409 1408 1407 1405 1403 1401 1399 1397 1395 1393 1390 1389 1387 1385 1382 1380 1377 1375 1373 1371 1369 1367 1365 1363 1362 1360 1359 1357 1356 1355 1354 1354 1353 1353 1353 1353 1353 1352 1352 1352 1352
1406 1405 1403 1402 1401 1399 1397 1395 1394 1391 1389 1387 1385 1382 1380 1378 1376 1374 1371 1369 1367 1365 1363 1362 1359 1358 1356 1355 1354 1353 1352 1351 1350 1350 1349 1348 1348 1348 1348 1348 1348 1348 1348
1400 1399 1398 1396 1395 1393 1391 1389 1387 1385 1383 1381 1379 1377 1374 1372 1370 1368 1366 1364 1361 1360 1358 1356 1354 1353 1351 1350 1349 1348 1347 1346 1346 1345 1344 1344 1344 1344 1344 1344 1344 1344 1344
1395 1393 1392 1390 1389 1387 1385 1383 1381 1379 1377 1375 1373 1370 1368 1366 1364 1362 1360 1358 1356 1354 1352 1351 1349 1348 1347 1346 1345 1344 1343 1342 1341 1340 1340 1340 1340 1340 1340 1340 1340 1340 1340
1389 1388 1386 1385 1383 1381 1379 1377 1375 1373 1371 1368 1366 1364 1362 1360 1358 1356 1354 1353 1351 1349 1347 1346 1345 1343 1342 1341 1340 1339 1338 1338 1337 1337 1336 1336 1336 1336 1336 1336 1336 1336 1336